Regional Weather Roundup
Issued by NWS

Home | Current Version | Previous Version | Text Only | Print | Product List | Glossary On
Versions: 1 2 3 4 5 6 7 8 9 10 11 12 13 14 15 16 17 18 19 20 21 22 23 24 25 26 27 28 29 30 31 32 33 34 35 36 37 38 39 40 41 42 43 44 45 46 47 48 49 50
000
ASUS43 KTOP 190408
RWRKS

WEATHER ROUNDUP FOR KANSAS
NATIONAL WEATHER SERVICE GOODLAND KS
1000 PM CST SAT FEB 18 2017

NOTE:  "FAIR" INDICATES FEW OR NO CLOUDS BELOW 12,000 FEET WITH NO
SIGNIFICANT WEATHER AND/OR OBSTRUCTIONS TO VISIBILITY.

KSZ001>006-013>018-027>032-041>047-190500-
NORTHWEST KANSAS

CITY           SKY/WX    TMP DP  RH WIND       PRES   REMARKS
GOODLAND       CLOUDY    49  28  44 S13       29.73S
HAYS           CLEAR     53  44  71 S10       29.79R
HILL CITY      PTCLDY    52  34  50 SW5       29.77R
RUSSELL        PTCLDY    53  42  66 S14       29.78R
$$

KSZ061>065-074>080-084>089-190500-
SOUTHWEST KANSAS

CITY           SKY/WX    TMP DP  RH WIND       PRES   REMARKS
DODGE CITY     PTCLDY    50  43  77 S14       29.81R
ELKHART          N/A     48  30  49 S12         N/A
GARDEN CITY    PTCLDY    48  34  58 S9        29.78R
GREAT BEND     CLEAR     53  47  79 S15       29.80R
LIBERAL        PTCLDY    48  32  53 SE10      29.81R
PRATT          CLOUDY    51  46  83 S10       29.83R
$$

KSZ066>073-081>083-090>101-190500-
SOUTHEAST KANSAS

CITY           SKY/WX    TMP DP  RH WIND       PRES   REMARKS
CHANUTE        CLEAR     53  49  86 S12       29.87R
COFFEYVILLE    CLEAR     47  46  97 S5        29.89R
HUTCHINSON     CLEAR     51  45  79 SE6       29.83R
MEDICINE LODGE   N/A     52  47  83 SE9       29.83R
NEWTON         PTCLDY    51  45  79 S12       29.85R
PARSONS        CLEAR     46  45  96 CALM      29.89R
WICHITA INTL   CLEAR     50  45  83 SE10      29.85R
WICHITA JABRA  CLEAR     54  48  80 S12       29.86R
WICHITA MCCONL CLEAR     54  47  78 S8        29.85R
WINFIELD       CLEAR     52  48  86 SE5       29.88R
$$

KSZ007>012-019>026-033>040-048>060-102>105-190500-
NORTHEAST KANSAS

CITY           SKY/WX    TMP DP  RH WIND       PRES   REMARKS
CONCORDIA      CLOUDY    58  42  55 S17       29.78S
EMPORIA        CLEAR     53  48  83 S13       29.84R
LAWRENCE       CLEAR     51  44  77 E6        29.85R
MANHATTAN      PTCLDY    44  38  79 CALM      29.82R
MARYSVILLE     PTCLDY    52  37  58 SE7       29.80S
OLATHE IND     CLEAR     53  46  77 S8        29.86R
OLATHE EXE     CLEAR     53  48  83 S6        29.85R
SALINA         PTCLDY    54  44  69 S10       29.81R
TOPEKA BILLARD CLEAR     57  45  64 S5        29.83R
TOPEKA FORBES  CLEAR     55  45  68 S7        29.84R
$$




USA.gov is the U.S. government's official web portal to all federal, state and local government web resources and services.